sat.trackr.live / text

‹ back to catalog

NUSAT-39 (TIKVAH ALPER)

NORAD 56201 · 2023-054Z

PAYLOAD ACTIVE UNKNOWN

§ Identity

Operator
Country
ARGN
Launch date
2023-04-15
Launch site
AFWTR
Launch vehicle
Mass (kg)
RCS (m²)

External: N2YO · Heavens-Above · Gunter

§ Orbital elements

Epoch: 2026-05-25T04:43:07.658688Z

Period
93.19 min
Inclination
97.3144°
Eccentricity
0.0007279
Mean motion
15.45298391 rev/d
Perigee alt
425.5 km
Apogee alt
435.5 km
Semi-major
6,808.6 km
B*
5.2616e-4
RAAN
54.7505°
Arg perigee
112.7655°
Mean anomaly
247.4363°
Rev number
17,490

§ Raw data

NUSAT-39 (TIKVAH ALPER)1 56201U 23054Z   26145.19661642  .00025040  00000+0  52616-3 0  99942 56201  97.3144  54.7505 0007279 112.7655 247.4363 15.45298391174909

JSON: /api/v1/satellites/56201 · /tle

For live sub-satellite position, see the globe view (requires WebGL).

§ Visibility from observer

Set your observer location to see the next 7 days of passes ≥ 10°. The values pass through the URL so the page stays shareable.

No JS? Fill the form by hand. The geolocation button needs JavaScript.